| time (UTC) | temp F | wind direction | speed knots | gust knots | rain 1hr in | rain 24hr in | rain mn in | humidity % | barometer mb |
| 20260510204012 | 68 | 249 | 1.7 | 7.8 | 0.00 | 0.26 | 0.00 | 35 | 1020.1 |
| 20260510203507 | 69 | 301 | 2.6 | 7.8 | 0.00 | 0.26 | 0.00 | 34 | 1020.0 |
| 20260510203023 | 69 | 223 | 1.7 | 6.1 | 0.00 | 0.26 | 0.00 | 35 | 1019.9 |
| 20260510202515 | 68 | 219 | 0.9 | 9.6 | 0.00 | 0.26 | 0.00 | 35 | 1020.0 |
| 20260510202012 | 70 | 290 | 1.7 | 9.6 | 0.00 | 0.26 | 0.00 | 36 | 1020.0 |
| 20260510201522 | 70 | 296 | 0.9 | 7.0 | 0.00 | 0.26 | 0.00 | 34 | 1020.0 |
| 20260510201007 | 69 | 78 | 1.7 | 7.0 | 0.00 | 0.26 | 0.00 | 36 | 1020.0 |
| 20260510200504 | 69 | 40 | 2.6 | 6.1 | 0.00 | 0.26 | 0.00 | 36 | 1020.0 |
| 20260510200012 | 69 | 46 | 0.9 | 4.3 | 0.00 | 0.26 | 0.00 | 34 | 1020.0 |
| 20260510195506 | 69 | 276 | 1.7 | 5.2 | 0.00 | 0.26 | 0.00 | 38 | 1020.0 |
| 20260510195006 | 69 | 56 | 1.7 | 5.2 | 0.00 | 0.26 | 0.00 | 40 | 1020.0 |
| 20260510194517 | 68 | 290 | 2.6 | 5.2 | 0.00 | 0.26 | 0.00 | 38 | 1020.1 |
| 20260510194010 | 68 | 328 | 0.0 | 7.0 | 0.00 | 0.26 | 0.00 | 38 | 1020.1 |
| 20260510193508 | 69 | 211 | 1.7 | 7.0 | 0.00 | 0.26 | 0.00 | 38 | 1020.2 |
| 20260510193022 | 68 | 268 | 2.6 | 8.7 | 0.00 | 0.26 | 0.00 | 35 | 1020.2 |
| 20260510192509 | 68 | 233 | 0.9 | 8.7 | 0.00 | 0.26 | 0.00 | 37 | 1020.2 |
| 20260510192009 | 67 | 215 | 2.6 | 6.1 | 0.00 | 0.26 | 0.00 | 38 | 1020.4 |
| 20260510191525 | 67 | 253 | 0.9 | 6.1 | 0.00 | 0.26 | 0.00 | 40 | 1020.3 |
| 20260510191017 | 67 | 277 | 1.7 | 6.1 | 0.00 | 0.26 | 0.00 | 39 | 1020.2 |
| 20260510190508 | 66 | 9 | 0.0 | 5.2 | 0.00 | 0.26 | 0.00 | 40 | 1020.3 |
| 20260510190033 | 65 | 188 | 0.9 | 4.3 | 0.00 | 0.26 | 0.00 | 39 | 1020.3 |
| 20260510185508 | 65 | 242 | 0.0 | 4.3 | 0.00 | 0.26 | 0.00 | 41 | 1020.3 |
| 20260510185004 | 65 | 257 | 0.9 | 7.0 | 0.00 | 0.26 | 0.00 | 40 | 1020.1 |
| 20260510184515 | 65 | 284 | 1.7 | 7.0 | 0.00 | 0.26 | 0.00 | 38 | 1020.1 |
| 20260510184008 | 65 | 269 | 1.7 | 7.0 | 0.00 | 0.26 | 0.00 | 38 | 1020.0 |
| 20260510183508 | 66 | 303 | 0.9 | 7.8 | 0.00 | 0.26 | 0.00 | 39 | 1020.1 |
| 20260510183020 | 66 | 128 | 0.9 | 7.8 | 0.00 | 0.26 | 0.00 | 39 | 1020.1 |
| 20260510182509 | 67 | 242 | 0.9 | 7.0 | 0.00 | 0.26 | 0.00 | 37 | 1020.0 |
| 20260510182009 | 68 | 265 | 2.6 | 7.0 | 0.00 | 0.26 | 0.00 | 42 | 1020.0 |
| 20260510181522 | 68 | 269 | 3.5 | 6.1 | 0.00 | 0.26 | 0.00 | 38 | 1019.8 |
| 20260510181009 | 67 | 323 | 3.5 | 6.1 | 0.00 | 0.26 | 0.00 | 36 | 1019.8 |
| 20260510180508 | 67 | 184 | 0.9 | 3.5 | 0.00 | 0.26 | 0.00 | 37 | 1019.8 |
| 20260510180026 | 68 | 131 | 0.9 | 5.2 | 0.00 | 0.26 | 0.00 | 42 | 1019.9 |
| 20260510175508 | 66 | 28 | 1.7 | 8.7 | 0.00 | 0.26 | 0.00 | 41 | 1019.9 |
| 20260510175013 | 65 | 44 | 1.7 | 8.7 | 0.00 | 0.26 | 0.00 | 41 | 1020.0 |
| 20260510174528 | 65 | 69 | 1.7 | 5.2 | 0.00 | 0.26 | 0.00 | 45 | 1020.1 |
| 20260510174009 | 65 | 86 | 0.9 | 4.3 | 0.00 | 0.26 | 0.00 | 44 | 1020.2 |
| 20260510173507 | 64 | 106 | 0.9 | 4.3 | 0.00 | 0.26 | 0.00 | 46 | 1020.0 |
| 20260510173024 | 64 | 5 | 0.9 | 3.5 | 0.00 | 0.26 | 0.00 | 45 | 1020.1 |
| 20260510172509 | 64 | 211 | 0.9 | 3.5 | 0.00 | 0.26 | 0.00 | 49 | 1020.2 |
| 20260510172009 | 63 | 235 | 0.0 | 4.3 | 0.00 | 0.26 | 0.00 | 47 | 1020.4 |
| 20260510171525 | 64 | 277 | 1.7 | 7.8 | 0.00 | 0.26 | 0.00 | 46 | 1020.4 |
| 20260510171007 | 64 | 61 | 0.9 | 7.8 | 0.00 | 0.26 | 0.00 | 48 | 1020.4 |
| 20260510170504 | 64 | 278 | 2.6 | 7.0 | 0.00 | 0.26 | 0.00 | 47 | 1020.3 |
| 20260510170006 | 65 | 248 | 1.7 | 7.0 | 0.00 | 0.26 | 0.00 | 49 | 1020.3 |
| 20260510165504 | 64 | 44 | 0.0 | 3.5 | 0.00 | 0.26 | 0.00 | 51 | 1020.5 |
| 20260510165011 | 63 | 48 | 0.9 | 3.5 | 0.00 | 0.26 | 0.00 | 52 | 1020.5 |
| 20260510164522 | 63 | 43 | 0.9 | 3.5 | 0.00 | 0.26 | 0.00 | 51 | 1020.5 |
| 20260510164007 | 62 | 15 | 0.0 | 2.6 | 0.00 | 0.26 | 0.00 | 52 | 1020.4 |
| 20260510163505 | 62 | 53 | 0.0 | 2.6 | 0.00 | 0.26 | 0.00 | 51 | 1020.3 |
| 20260510163028 | 62 | 300 | 0.9 | 3.5 | 0.00 | 0.26 | 0.00 | 54 | 1020.4 |
| 20260510162506 | 62 | 275 | 1.7 | 3.5 | 0.00 | 0.26 | 0.00 | 53 | 1020.4 |
| 20260510162013 | 61 | 360 | 0.9 | 1.7 | 0.00 | 0.26 | 0.00 | 54 | 1020.4 |
| 20260510161519 | 61 | 78 | 0.0 | 1.7 | 0.00 | 0.26 | 0.00 | 54 | 1020.5 |
| 20260510161003 | 62 | 130 | 0.0 | 2.6 | 0.00 | 0.26 | 0.00 | 52 | 1020.6 |
| 20260510160503 | 62 | 284 | 0.9 | 4.3 | 0.00 | 0.26 | 0.00 | 52 | 1020.6 |
| 20260510160005 | 63 | 191 | 0.0 | 5.2 | 0.00 | 0.26 | 0.00 | 60 | 1020.7 |
| 20260510155506 | 62 | 286 | 1.7 | 5.2 | 0.00 | 0.26 | 0.00 | 54 | 1020.6 |
| 20260510155005 | 62 | 81 | 0.9 | 5.2 | 0.00 | 0.26 | 0.00 | 57 | 1020.6 |
| 20260510154508 | 61 | 106 | 1.7 | 5.2 | 0.00 | 0.26 | 0.00 | 58 | 1020.5 |
| 20260510154005 | 60 | 67 | 0.0 | 7.0 | 0.00 | 0.26 | 0.00 | 59 | 1020.5 |
| 20260510153507 | 60 | 299 | 1.7 | 7.0 | 0.00 | 0.26 | 0.00 | 61 | 1020.3 |
| 20260510153014 | 60 | 9 | 0.9 | 7.0 | 0.00 | 0.26 | 0.00 | 61 | 1020.4 |
| 20260510152510 | 60 | 311 | 1.7 | 6.1 | 0.00 | 0.26 | 0.00 | 61 | 1020.3 |
| 20260510152011 | 59 | 36 | 0.9 | 3.5 | 0.00 | 0.26 | 0.00 | 64 | 1020.2 |
| 20260510151526 | 58 | 258 | 0.9 | 6.1 | 0.00 | 0.26 | 0.00 | 62 | 1020.1 |
| 20260510151010 | 58 | 269 | 0.9 | 6.1 | 0.00 | 0.26 | 0.00 | 62 | 1019.9 |
| 20260510150506 | 59 | 264 | 1.7 | 3.5 | 0.00 | 0.26 | 0.00 | 62 | 1020.0 |
| 20260510150024 | 59 | 283 | 0.9 | 5.2 | 0.00 | 0.26 | 0.00 | 63 | 1019.9 |
| 20260510145503 | 59 | 259 | 0.0 | 5.2 | 0.00 | 0.26 | 0.00 | 63 | 1019.9 |
| 20260510145004 | 59 | 53 | 0.9 | 2.6 | 0.00 | 0.26 | 0.00 | 62 | 1020.0 |
| 20260510144510 | 59 | 111 | 0.9 | 2.6 | 0.00 | 0.26 | 0.00 | 62 | 1019.9 |
| 20260510144004 | 58 | 249 | 0.0 | 3.5 | 0.00 | 0.26 | 0.00 | 63 | 1019.8 |
| 20260510143506 | 58 | 207 | 0.0 | 5.2 | 0.00 | 0.26 | 0.00 | 65 | 1019.5 |
| 20260510143010 | 59 | 71 | 0.9 | 5.2 | 0.00 | 0.26 | 0.00 | 63 | 1019.5 |
| 20260510142507 | 59 | 308 | 0.9 | 4.3 | 0.00 | 0.26 | 0.00 | 62 | 1019.6 |
| 20260510142011 | 59 | 325 | 0.9 | 5.2 | 0.00 | 0.26 | 0.00 | 63 | 1019.5 |
| 20260510141516 | 59 | 67 | 1.7 | 5.2 | 0.00 | 0.26 | 0.00 | 63 | 1019.4 |
| 20260510141011 | 58 | 246 | 0.0 | 2.6 | 0.00 | 0.26 | 0.00 | 64 | 1019.3 |
| 20260510140511 | 58 | 67 | 0.0 | 2.6 | 0.00 | 0.26 | 0.00 | 67 | 1019.3 |
| 20260510140022 | 58 | 17 | 0.0 | 2.6 | 0.00 | 0.26 | 0.00 | 66 | 1019.1 |
| 20260510135509 | 58 | 59 | 0.0 | 4.3 | 0.00 | 0.26 | 0.00 | 64 | 1019.1 |
| 20260510135011 | 58 | 336 | 0.9 | 4.3 | 0.00 | 0.26 | 0.00 | 65 | 1019.1 |
| 20260510134526 | 59 | 46 | 0.0 | 2.6 | 0.00 | 0.26 | 0.00 | 65 | 1019.1 |
| 20260510134003 | 59 | 64 | 0.0 | 3.5 | 0.00 | 0.26 | 0.00 | 65 | 1019.0 |
| 20260510133504 | 58 | 44 | 0.9 | 3.5 | 0.00 | 0.26 | 0.00 | 64 | 1018.9 |
| 20260510133007 | 58 | 63 | 0.0 | 5.2 | 0.00 | 0.26 | 0.00 | 67 | 1019.1 |
| 20260510132506 | 58 | 26 | 1.7 | 5.2 | 0.00 | 0.26 | 0.00 | 67 | 1019.1 |
| 20260510132009 | 58 | 330 | 0.9 | 3.5 | 0.00 | 0.26 | 0.00 | 66 | 1019.2 |
| 20260510131513 | 57 | 37 | 0.9 | 3.5 | 0.00 | 0.26 | 0.00 | 68 | 1019.0 |
| 20260510131007 | 57 | 228 | 0.9 | 3.5 | 0.00 | 0.26 | 0.00 | 71 | 1019.0 |
| 20260510130505 | 56 | 155 | 0.0 | 6.1 | 0.00 | 0.26 | 0.00 | 71 | 1018.8 |
| 20260510130019 | 56 | 223 | 1.7 | 6.1 | 0.00 | 0.26 | 0.00 | 72 | 1018.8 |
| 20260510125507 | 56 | 246 | 0.9 | 2.6 | 0.00 | 0.26 | 0.00 | 74 | 1018.6 |
| 20260510125009 | 56 | 279 | 0.0 | 1.7 | 0.00 | 0.26 | 0.00 | 75 | 1018.5 |
| 20260510124528 | 56 | 49 | 0.0 | 1.7 | 0.00 | 0.26 | 0.00 | 74 | 1018.5 |
| 20260510124008 | 55 | 277 | 0.0 | 5.2 | 0.00 | 0.26 | 0.00 | 76 | 1018.4 |
| 20260510123507 | 55 | 18 | 0.0 | 5.2 | 0.00 | 0.26 | 0.00 | 77 | 1018.3 |
| 20260510123026 | 55 | 320 | 0.0 | 1.7 | 0.00 | 0.26 | 0.00 | 78 | 1018.1 |
| 20260510122503 | 54 | 139 | 0.0 | 1.7 | 0.00 | 0.26 | 0.00 | 79 | 1018.1 |
| 20260510122007 | 54 | 228 | 0.0 | 1.7 | 0.00 | 0.26 | 0.00 | 80 | 1018.1 |
| 20260510121511 | 54 | 265 | 0.0 | 1.7 | 0.00 | 0.26 | 0.00 | 82 | 1018.0 |
| 20260510121007 | 53 | 309 | 0.0 | 1.7 | 0.00 | 0.26 | 0.00 | 82 | 1018.0 |
| 20260510120513 | 53 | 215 | 0.0 | 3.5 | 0.00 | 0.26 | 0.00 | 82 | 1018.0 |
| 20260510120024 | 53 | 360 | 0.9 | 3.5 | 0.00 | 0.26 | 0.00 | 82 | 1017.8 |
| 20260510115505 | 53 | 238 | 0.0 | 3.5 | 0.00 | 0.26 | 0.00 | 83 | 1017.7 |
| 20260510115011 | 53 | 325 | 0.0 | 2.6 | 0.00 | 0.26 | 0.00 | 84 | 1017.5 |
| 20260510114526 | 53 | 43 | 0.9 | 2.6 | 0.00 | 0.26 | 0.00 | 86 | 1017.3 |
| 20260510114010 | 52 | 40 | 0.0 | 1.7 | 0.00 | 0.26 | 0.00 | 86 | 1017.2 |
| 20260510113508 | 52 | 282 | 0.0 | 1.7 | 0.00 | 0.26 | 0.00 | 87 | 1017.1 |
| 20260510113022 | 52 | 223 | 0.0 | 1.7 | 0.00 | 0.26 | 0.00 | 89 | 1017.0 |
| 20260510112508 | 52 | 219 | 0.0 | 1.7 | 0.00 | 0.26 | 0.00 | 89 | 1016.9 |
| 20260510112012 | 52 | 286 | 0.0 | 1.7 | 0.00 | 0.26 | 0.00 | 89 | 1016.7 |
| 20260510111526 | 52 | 286 | 0.0 | 1.7 | 0.00 | 0.26 | 0.00 | 89 | 1016.6 |
| 20260510111004 | 52 | 286 | 0.0 | 1.7 | 0.00 | 0.26 | 0.00 | 89 | 1016.6 |
| 20260510110508 | 52 | 155 | 0.0 | 0.0 | 0.00 | 0.26 | 0.00 | 88 | 1016.5 |
| 20260510110013 | 52 | 155 | 0.0 | 1.7 | 0.00 | 0.26 | 0.00 | 87 | 1016.4 |
| 20260510105508 | 53 | 224 | 0.0 | 1.7 | 0.00 | 0.26 | 0.00 | 87 | 1016.3 |
| 20260510105005 | 53 | 274 | 0.0 | 1.7 | 0.00 | 0.26 | 0.00 | 88 | 1016.2 |
| 20260510104527 | 53 | 305 | 0.0 | 1.7 | 0.00 | 0.26 | 0.00 | 89 | 1016.1 |
| 20260510104010 | 53 | 320 | 0.0 | 1.7 | 0.00 | 0.26 | 0.00 | 89 | 1016.1 |
| 20260510103512 | 53 | 234 | 0.0 | 0.9 | 0.00 | 0.26 | 0.00 | 90 | 1016.2 |
| 20260510103021 | 53 | 344 | 0.0 | 1.7 | 0.00 | 0.26 | 0.00 | 90 | 1016.1 |
| 20260510102510 | 53 | 344 | 0.0 | 1.7 | 0.00 | 0.26 | 0.00 | 90 | 1016.1 |
| 20260510102008 | 54 | 274 | 0.0 | 1.7 | 0.00 | 0.26 | 0.00 | 90 | 1016.0 |
| 20260510101524 | 54 | 78 | 0.0 | 1.7 | 0.00 | 0.26 | 0.00 | 90 | 1015.8 |
| 20260510101008 | 54 | 240 | 0.0 | 1.7 | 0.00 | 0.26 | 0.00 | 91 | 1015.7 |
| 20260510100509 | 54 | 240 | 0.9 | 1.7 | 0.00 | 0.26 | 0.00 | 91 | 1015.7 |
| 20260510100026 | 54 | 251 | 0.0 | 1.7 | 0.00 | 0.26 | 0.00 | 91 | 1015.6 |
| 20260510095505 | 55 | 229 | 0.0 | 1.7 | 0.00 | 0.26 | 0.00 | 92 | 1015.5 |
| 20260510095014 | 55 | 38 | 0.0 | 1.7 | 0.00 | 0.26 | 0.00 | 92 | 1015.4 |
| 20260510094533 | 55 | 352 | 0.0 | 1.7 | 0.00 | 0.26 | 0.00 | 92 | 1015.7 |
| 20260510094005 | 55 | 215 | 0.0 | 2.6 | 0.00 | 0.26 | 0.00 | 93 | 1015.6 |
| 20260510093509 | 55 | 279 | 0.0 | 2.6 | 0.00 | 0.26 | 0.00 | 93 | 1015.5 |
| 20260510093022 | 55 | 250 | 0.0 | 1.7 | 0.00 | 0.26 | 0.00 | 93 | 1015.4 |
| 20260510092511 | 55 | 230 | 0.0 | 1.7 | 0.00 | 0.26 | 0.00 | 93 | 1015.3 |
| 20260510092008 | 55 | 260 | 0.0 | 1.7 | 0.00 | 0.26 | 0.00 | 93 | 1015.4 |
| 20260510091530 | 55 | 281 | 0.0 | 1.7 | 0.00 | 0.26 | 0.00 | 94 | 1015.3 |
| 20260510091008 | 55 | 260 | 0.0 | 1.7 | 0.00 | 0.26 | 0.00 | 94 | 1015.3 |
| 20260510090510 | 55 | 247 | 0.0 | 0.0 | 0.00 | 0.26 | 0.00 | 94 | 1015.2 |
| 20260510090026 | 55 | 285 | 0.0 | 1.7 | 0.00 | 0.26 | 0.00 | 94 | 1015.0 |
| 20260510085508 | 55 | 285 | 0.0 | 1.7 | 0.00 | 0.26 | 0.00 | 94 | 1014.9 |
| 20260510085010 | 55 | 257 | 0.0 | 1.7 | 0.00 | 0.26 | 0.00 | 94 | 1014.6 |
| 20260510084525 | 55 | 266 | 0.0 | 0.0 | 0.00 | 0.26 | 0.00 | 94 | 1014.5 |
| 20260510084011 | 55 | 266 | 0.0 | 0.0 | 0.00 | 0.26 | 0.00 | 94 | 1014.5 |
| 20260510083508 | 56 | 266 | 0.0 | 0.0 | 0.00 | 0.26 | 0.00 | 94 | 1014.3 |
| 20260510083030 | 56 | 266 | 0.0 | 0.0 | 0.00 | 0.26 | 0.00 | 94 | 1014.2 |
| 20260510082507 | 56 | 266 | 0.0 | 0.0 | 0.00 | 0.26 | 0.00 | 94 | 1014.1 |
| 20260510082015 | 56 | 266 | 0.0 | 1.7 | 0.00 | 0.26 | 0.00 | 94 | 1014.1 |
| 20260510081524 | 56 | 266 | 0.0 | 1.7 | 0.00 | 0.26 | 0.00 | 93 | 1014.1 |
| 20260510081007 | 57 | 259 | 0.0 | 1.7 | 0.00 | 0.27 | 0.00 | 93 | 1014.1 |
| 20260510080504 | 57 | 263 | 0.0 | 1.7 | 0.00 | 0.27 | 0.00 | 93 | 1013.9 |
| 20260510080016 | 57 | 221 | 0.0 | 1.7 | 0.00 | 0.27 | 0.00 | 93 | 1013.7 |
| 20260510075503 | 57 | 221 | 0.0 | 1.7 | 0.00 | 0.27 | 0.00 | 93 | 1013.6 |
| 20260510075007 | 57 | 267 | 0.0 | 0.9 | 0.00 | 0.27 | 0.00 | 93 | 1013.5 |
| 20260510074510 | 57 | 244 | 0.0 | 0.9 | 0.00 | 0.27 | 0.00 | 93 | 1013.5 |
| 20260510074006 | 58 | 337 | 0.0 | 1.7 | 0.00 | 0.27 | 0.00 | 93 | 1013.4 |
| 20260510073507 | 58 | 352 | 0.0 | 1.7 | 0.00 | 0.27 | 0.00 | 93 | 1013.7 |
| 20260510073020 | 58 | 283 | 0.0 | 1.7 | 0.00 | 0.27 | 0.00 | 94 | 1013.7 |
| 20260510072511 | 58 | 291 | 0.9 | 1.7 | 0.00 | 0.27 | 0.00 | 94 | 1013.5 |
| 20260510072009 | 58 | 255 | 0.0 | 0.9 | 0.00 | 0.27 | 0.00 | 94 | 1013.5 |
| 20260510071527 | 58 | 282 | 0.0 | 0.0 | 0.00 | 0.27 | 0.00 | 94 | 1013.5 |
| 20260510071006 | 58 | 282 | 0.0 | 0.0 | 0.00 | 0.27 | 0.00 | 94 | 1013.5 |
| 20260510070503 | 58 | 26 | 0.0 | 0.0 | 0.00 | 0.27 | 0.00 | 93 | 1013.4 |
| 20260510070004 | 58 | 352 | 0.0 | 1.7 | 0.00 | 0.27 | 0.00 | 93 | 1013.5 |
| 20260510065504 | 58 | 352 | 0.0 | 1.7 | 0.00 | 0.27 | 0.00 | 93 | 1013.5 |
| 20260510065003 | 58 | 352 | 0.0 | 2.6 | 0.00 | 0.27 | 0.00 | 94 | 1013.6 |
| 20260510064508 | 58 | 27 | 0.0 | 2.6 | 0.00 | 0.27 | 0.00 | 94 | 1013.6 |
| 20260510064006 | 58 | 243 | 0.0 | 0.0 | 0.00 | 0.27 | 0.00 | 94 | 1013.6 |
| 20260510063507 | 58 | 30 | 0.0 | 1.7 | 0.00 | 0.27 | 0.00 | 94 | 1013.4 |
| 20260510063016 | 58 | 38 | 0.0 | 1.7 | 0.00 | 0.27 | 0.00 | 94 | 1013.5 |
| 20260510062508 | 58 | 171 | 0.0 | 0.9 | 0.00 | 0.27 | 0.00 | 94 | 1013.5 |
| 20260510062009 | 58 | 265 | 0.0 | 0.0 | 0.00 | 0.27 | 0.00 | 94 | 1013.5 |
| 20260510061518 | 58 | 265 | 0.0 | 0.0 | 0.00 | 0.27 | 0.00 | 94 | 1013.3 |
| 20260510061009 | 59 | 265 | 0.0 | 1.7 | 0.00 | 0.27 | 0.00 | 93 | 1013.5 |
| 20260510060512 | 59 | 265 | 0.0 | 1.7 | 0.00 | 0.27 | 0.00 | 93 | 1013.6 |
| 20260510060036 | 59 | 228 | 0.0 | 1.7 | 0.00 | 0.27 | 0.00 | 94 | 1013.6 |
| 20260510055507 | 59 | 257 | 0.0 | 1.7 | 0.00 | 0.27 | 0.00 | 94 | 1013.4 |
| 20260510055006 | 59 | 105 | 0.0 | 1.7 | 0.00 | 0.27 | 0.00 | 94 | 1013.1 |
| 20260510054509 | 59 | 27 | 0.0 | 2.6 | 0.00 | 0.27 | 0.00 | 94 | 1013.1 |
| 20260510054006 | 59 | 49 | 0.0 | 2.6 | 0.00 | 0.27 | 0.00 | 94 | 1013.1 |
| 20260510053504 | 59 | 66 | 0.0 | 1.7 | 0.00 | 0.27 | 0.00 | 94 | 1013.1 |
| 20260510053010 | 59 | 288 | 0.0 | 2.6 | 0.01 | 0.27 | 0.00 | 94 | 1012.9 |
| 20260510052511 | 59 | 62 | 0.0 | 2.6 | 0.01 | 0.27 | 0.00 | 94 | 1012.7 |
| 20260510052009 | 59 | 40 | 0.0 | 2.6 | 0.01 | 0.27 | 0.00 | 94 | 1012.7 |
| 20260510051516 | 59 | 72 | 0.9 | 2.6 | 0.02 | 0.27 | 0.00 | 94 | 1012.6 |
| 20260510051007 | 59 | 43 | 0.0 | 2.6 | 0.03 | 0.27 | 0.00 | 93 | 1012.8 |
| 20260510050505 | 59 | 352 | 0.0 | 2.6 | 0.03 | 0.27 | 0.00 | 93 | 1012.8 |
| 20260510050018 | 59 | 153 | 0.0 | 1.7 | 0.04 | 0.27 | 0.00 | 93 | 1012.9 |
| 20260510045514 | 60 | 348 | 0.0 | 3.5 | 0.06 | 0.27 | 0.27 | 93 | 1012.7 |
| 20260510045009 | 60 | 338 | 0.0 | 3.5 | 0.07 | 0.27 | 0.27 | 93 | 1012.3 |
| 20260510044525 | 60 | 58 | 0.9 | 2.6 | 0.08 | 0.27 | 0.27 | 93 | 1012.2 |
| 20260510044003 | 60 | 294 | 0.0 | 0.9 | 0.09 | 0.27 | 0.27 | 93 | 1012.6 |
| 20260510043505 | 60 | 17 | 0.0 | 2.6 | 0.09 | 0.27 | 0.27 | 93 | 1012.2 |
| 20260510043011 | 60 | 130 | 0.9 | 3.5 | 0.09 | 0.26 | 0.26 | 93 | 1012.0 |
| 20260510042507 | 60 | 70 | 0.0 | 3.5 | 0.11 | 0.26 | 0.26 | 92 | 1012.0 |
| 20260510042003 | 60 | 134 | 0.9 | 4.3 | 0.12 | 0.26 | 0.26 | 92 | 1012.1 |
| 20260510041514 | 60 | 272 | 0.0 | 5.2 | 0.14 | 0.25 | 0.25 | 92 | 1012.7 |
| 20260510041005 | 60 | 61 | 2.6 | 5.2 | 0.16 | 0.24 | 0.24 | 92 | 1012.5 |
| 20260510040507 | 60 | 271 | 2.6 | 5.2 | 0.20 | 0.24 | 0.24 | 92 | 1012.8 |
| 20260510040019 | 60 | 323 | 1.7 | 4.3 | 0.22 | 0.23 | 0.23 | 91 | 1013.0 |
| 20260510035508 | 60 | 59 | 0.9 | 7.0 | 0.20 | 0.21 | 0.21 | 91 | 1012.7 |
| 20260510035009 | 60 | 65 | 2.6 | 7.0 | 0.19 | 0.20 | 0.20 | 90 | 1012.5 |
| 20260510034523 | 61 | 51 | 1.7 | 5.2 | 0.18 | 0.19 | 0.19 | 90 | 1012.7 |
| 20260510034009 | 61 | 57 | 0.9 | 5.2 | 0.17 | 0.18 | 0.18 | 90 | 1013.1 |
| 20260510033512 | 61 | 350 | 1.7 | 8.7 | 0.17 | 0.18 | 0.18 | 89 | 1012.9 |
| 20260510033024 | 61 | 67 | 2.6 | 9.6 | 0.16 | 0.17 | 0.17 | 89 | 1013.1 |
| 20260510032503 | 61 | 259 | 1.7 | 13.0 | 0.14 | 0.15 | 0.15 | 87 | 1013.3 |
| 20260510032006 | 62 | 205 | 3.5 | 13.9 | 0.13 | 0.14 | 0.14 | 86 | 1013.4 |
| 20260510031514 | 62 | 337 | 7.8 | 21.7 | 0.10 | 0.11 | 0.11 | 84 | 1013.3 |
| 20260510031006 | 63 | 283 | 6.1 | 27.8 | 0.07 | 0.09 | 0.08 | 81 | 1013.3 |
| 20260510030508 | 64 | 291 | 10.4 | 27.8 | 0.03 | 0.06 | 0.04 | 77 | 1013.0 |
| 20260510030018 | 67 | 316 | 5.2 | 20.0 | 0.00 | 0.04 | 0.01 | 72 | 1012.6 |
| 20260510025512 | 68 | 257 | 7.8 | 14.8 | 0.00 | 0.05 | 0.01 | 67 | 1012.0 |
| 20260510025011 | 68 | 294 | 0.0 | 1.7 | 0.00 | 0.06 | 0.01 | 63 | 1010.8 |
| 20260510024520 | 68 | 346 | 0.0 | 0.0 | 0.00 | 0.07 | 0.01 | 61 | 1010.0 |
| 20260510024009 | 68 | 346 | 0.0 | 0.0 | 0.00 | 0.09 | 0.01 | 63 | 1009.9 |
| 20260510023507 | 68 | 346 | 0.0 | 0.0 | 0.00 | 0.10 | 0.01 | 63 | 1009.8 |
| 20260510023022 | 68 | 346 | 0.0 | 0.0 | 0.00 | 0.11 | 0.01 | 64 | 1009.7 |
| 20260510022510 | 67 | 347 | 0.0 | 0.0 | 0.00 | 0.13 | 0.01 | 64 | 1009.7 |
| 20260510022010 | 67 | 347 | 0.0 | 0.0 | 0.00 | 0.15 | 0.01 | 64 | 1009.6 |
| 20260510021528 | 67 | 347 | 0.0 | 0.0 | 0.00 | 0.17 | 0.01 | 65 | 1009.5 |
| 20260510021003 | 67 | 347 | 0.0 | 0.0 | 0.00 | 0.20 | 0.01 | 63 | 1009.4 |
| 20260510020504 | 68 | 347 | 0.0 | 0.0 | 0.00 | 0.22 | 0.01 | 62 | 1009.4 |
| 20260510020014 | 67 | 347 | 0.0 | 0.0 | 0.00 | 0.24 | 0.01 | 63 | 1009.3 |
| 20260510015508 | 67 | 347 | 0.0 | 0.0 | 0.00 | 0.26 | 0.01 | 62 | 1009.3 |
| 20260510015007 | 68 | 347 | 0.0 | 0.0 | 0.00 | 0.29 | 0.01 | 62 | 1009.1 |
| 20260510014523 | 68 | 347 | 0.0 | 0.0 | 0.00 | 0.32 | 0.01 | 62 | 1009.0 |
| 20260510014008 | 68 | 347 | 0.0 | 0.0 | 0.00 | 0.34 | 0.01 | 61 | 1008.9 |
| 20260510013511 | 68 | 347 | 0.0 | 0.0 | 0.00 | 0.36 | 0.01 | 59 | 1008.8 |
| 20260510013023 | 68 | 347 | 0.0 | 0.0 | 0.00 | 0.37 | 0.01 | 59 | 1008.8 |
| 20260510012509 | 69 | 347 | 0.0 | 0.0 | 0.00 | 0.37 | 0.01 | 57 | 1008.7 |
| 20260510012011 | 70 | 347 | 0.0 | 0.0 | 0.00 | 0.37 | 0.01 | 56 | 1008.7 |
| 20260510011526 | 70 | 347 | 0.0 | 0.0 | 0.00 | 0.37 | 0.01 | 55 | 1008.8 |
| 20260510011011 | 70 | 252 | 0.0 | 0.0 | 0.00 | 0.37 | 0.01 | 54 | 1008.8 |
| 20260510010511 | 72 | 252 | 0.0 | 0.0 | 0.00 | 0.38 | 0.01 | 52 | 1008.8 |
| 20260510010025 | 72 | 252 | 0.0 | 0.0 | 0.00 | 0.38 | 0.01 | 49 | 1008.8 |
| 20260510005505 | 72 | 252 | 0.0 | 0.0 | 0.00 | 0.38 | 0.01 | 52 | 1008.8 |
| 20260510005007 | 73 | 252 | 0.0 | 0.0 | 0.00 | 0.38 | 0.01 | 51 | 1008.7 |
| 20260510004516 | 74 | 252 | 0.0 | 0.0 | 0.00 | 0.38 | 0.01 | 50 | 1008.6 |
| 20260510004006 | 74 | 252 | 0.0 | 0.0 | 0.00 | 0.38 | 0.01 | 50 | 1008.6 |
| 20260510003508 | 75 | 252 | 0.0 | 0.0 | 0.00 | 0.39 | 0.01 | 50 | 1008.5 |
| 20260510003034 | 75 | 252 | 0.0 | 0.0 | 0.00 | 0.40 | 0.01 | 48 | 1008.5 |
| 20260510002510 | 76 | 252 | 0.0 | 0.0 | 0.00 | 0.40 | 0.01 | 46 | 1008.4 |
| 20260510002007 | 76 | 252 | 0.0 | 0.0 | 0.00 | 0.40 | 0.01 | 43 | 1008.3 |
| 20260510001525 | 77 | 252 | 0.0 | 0.0 | 0.00 | 0.41 | 0.01 | 43 | 1008.3 |
| 20260510001010 | 77 | 252 | 0.0 | 0.0 | 0.00 | 0.41 | 0.01 | 43 | 1008.3 |
| 20260510000510 | 77 | 269 | 0.0 | 0.0 | 0.00 | 0.41 | 0.01 | 43 | 1008.3 |
| 20260510000027 | 77 | 247 | 0.0 | 0.0 | 0.00 | 0.41 | 0.01 | 44 | 1008.2 |
| 20260509235509 | 78 | 244 | 0.0 | 0.9 | 0.00 | 0.41 | 0.01 | 40 | 1008.2 |
| 20260509235008 | 78 | 286 | 0.0 | 2.6 | 0.00 | 0.41 | 0.01 | 39 | 1008.1 |
| 20260509234532 | 79 | 275 | 0.9 | 2.6 | 0.00 | 0.41 | 0.01 | 38 | 1008.2 |
| 20260509234008 | 79 | 273 | 0.0 | 1.7 | 0.00 | 0.41 | 0.01 | 39 | 1008.3 |
| 20260509233508 | 79 | 275 | 0.0 | 1.7 | 0.00 | 0.41 | 0.01 | 39 | 1008.3 |
| 20260509233018 | 79 | 266 | 0.9 | 2.6 | 0.00 | 0.41 | 0.01 | 37 | 1008.3 |
| 20260509232509 | 79 | 286 | 0.0 | 2.6 | 0.00 | 0.41 | 0.01 | 38 | 1008.2 |
| 20260509232009 | 79 | 242 | 1.7 | 2.6 | 0.00 | 0.41 | 0.01 | 37 | 1008.2 |
| 20260509231522 | 79 | 230 | 0.9 | 2.6 | 0.00 | 0.41 | 0.01 | 38 | 1008.2 |
| 20260509231009 | 79 | 315 | 0.9 | 5.2 | 0.00 | 0.41 | 0.01 | 40 | 1008.1 |
| 20260509230503 | 79 | 219 | 0.0 | 6.1 | 0.00 | 0.41 | 0.01 | 36 | 1008.1 |
| 20260509230008 | 80 | 264 | 1.7 | 7.0 | 0.00 | 0.41 | 0.01 | 37 | 1008.2 |
| 20260509225502 | 80 | 281 | 3.5 | 7.0 | 0.00 | 0.41 | 0.01 | 37 | 1008.2 |
| 20260509225005 | 79 | 227 | 1.7 | 7.0 | 0.00 | 0.41 | 0.01 | 36 | 1008.0 |
| 20260509224511 | 80 | 208 | 0.9 | 5.2 | 0.00 | 0.41 | 0.01 | 39 | 1008.1 |
| 20260509224005 | 80 | 297 | 1.7 | 6.1 | 0.00 | 0.41 | 0.01 | 37 | 1008.2 |
| 20260509223510 | 80 | 209 | 2.6 | 6.1 | 0.00 | 0.41 | 0.01 | 35 | 1008.2 |
| 20260509223015 | 80 | 261 | 1.7 | 7.0 | 0.00 | 0.41 | 0.01 | 40 | 1008.2 |
| 20260509222506 | 80 | 241 | 0.9 | 7.8 | 0.00 | 0.41 | 0.01 | 36 | 1008.2 |
| 20260509222008 | 80 | 218 | 2.6 | 7.8 | 0.00 | 0.41 | 0.01 | 36 | 1008.3 |
| 20260509221521 | 80 | 262 | 1.7 | 3.5 | 0.00 | 0.41 | 0.01 | 37 | 1008.2 |
| 20260509221003 | 80 | 228 | 0.9 | 5.2 | 0.00 | 0.41 | 0.01 | 38 | 1008.1 |
| 20260509220503 | 80 | 278 | 1.7 | 5.2 | 0.00 | 0.41 | 0.01 | 35 | 1008.1 |
| 20260509220015 | 80 | 225 | 1.7 | 7.8 | 0.00 | 0.41 | 0.01 | 38 | 1008.1 |
| 20260509215506 | 80 | 306 | 0.9 | 7.8 | 0.00 | 0.41 | 0.01 | 40 | 1008.1 |
| 20260509215005 | 80 | 279 | 1.7 | 7.8 | 0.00 | 0.41 | 0.01 | 40 | 1008.2 |
| 20260509214511 | 80 | 254 | 1.7 | 4.3 | 0.00 | 0.41 | 0.01 | 35 | 1008.3 |
| 20260509214007 | 80 | 82 | 0.9 | 8.7 | 0.00 | 0.41 | 0.01 | 35 | 1008.3 |
| 20260509213504 | 79 | 171 | 1.7 | 8.7 | 0.00 | 0.41 | 0.01 | 36 | 1008.3 |
| 20260509213015 | 79 | 299 | 1.7 | 9.6 | 0.00 | 0.41 | 0.01 | 37 | 1008.4 |
| 20260509212509 | 80 | 286 | 4.3 | 9.6 | 0.00 | 0.41 | 0.01 | 36 | 1008.5 |
| 20260509212010 | 80 | 284 | 1.7 | 6.1 | 0.00 | 0.41 | 0.01 | 36 | 1008.3 |
| 20260509211519 | 79 | 261 | 1.7 | 7.0 | 0.00 | 0.41 | 0.01 | 36 | 1008.3 |
| 20260509211009 | 80 | 280 | 2.6 | 9.6 | 0.00 | 0.41 | 0.01 | 37 | 1008.5 |
| 20260509210508 | 79 | 296 | 3.5 | 9.6 | 0.00 | 0.41 | 0.01 | 37 | 1008.5 |
| 20260509210023 | 79 | 311 | 3.5 | 9.6 | 0.00 | 0.41 | 0.01 | 38 | 1008.5 |
| 20260509205505 | 79 | 246 | 1.7 | 7.0 | 0.00 | 0.41 | 0.01 | 41 | 1008.5 |
| 20260509205003 | 79 | 217 | 3.5 | 9.6 | 0.00 | 0.41 | 0.01 | 37 | 1008.5 |